Weather History for KAPC - April, 2012

Change the Weather History Date:

Wednesday, April 4, 2012

  Actual Average Record
Temperature  
Mean Temperature 49 °F 54 °F  
Max Temperature 61 °F 67 °F 74 °F (2011)
Min Temperature 36 °F 41 °F 32 °F (2015)
Degree Days  
Heating Degree Days 16    
Month to date heating degree days 53  
Since 1 July heating degree days 2741  
Cooling Degree Days 0    
Month to date cooling degree days 0  
Year to date cooling degree days 0  
Moisture  
Dew Point 37 °F    
Average Humidity 68    
Maximum Humidity 92    
Minimum Humidity 43    
Precipitation  
Precipitation 0.00 in - 2.01 in (1941)
Month to date precipitation 0.00  
Year to date precipitation 11.97  
Since 1 July precipitation 15.55  
Sea Level Pressure  
Sea Level Pressure 30.13 in    
Wind  
Wind Speed 10 mph (West)    
Max Wind Speed 28 mph    
Max Gust Speed 33 mph    
Visibility 10 miles    
Events      
T = Trace of Precipitation, MM = Missing Value Source: NWS Daily Summary

Daily Weather History Graph

Daily Weather History Graph

Search for Another Location

Airport or City:

Trip Planner

Search our weather history database for the weather conditions in past years. The results will help you decide how hot, cold, wet, or windy it might be!

Date:

Astronomy

Apr. 04, 2012 Rise Set
Actual Time 6:48 AM PDT 7:35 PM PDT
Civil Twilight 6:22 AM PDT 8:02 PM PDT
Nautical Twilight 5:50 AM PDT 8:34 PM PDT
Astronomical Twilight 5:17 AM PDT 9:06 PM PDT
Moon 5:37 PM PDT (4/4) 5:12 AM PDT (4/4)
Length of Visible Light 13h 40m
Length of Day
12h 46m
Waxing Gibbous, 94% of the Moon is Illuminated
Apr 4
Waxing Gibbous
Apr 6
Full
Apr 13
Last Quarter
Apr 21
New
Apr 29
First Quarter

Hourly Weather History & Observations

Time (PDT) Temp. Windchill Dew Point Humidity Pressure Visibility Wind Dir Wind Speed Gust Speed Precip Events Conditions
12:54 AM 46.9 °F - 39.9 °F 77% 30.09 in 10.0 mi Calm Calm - N/A   Clear
1:54 AM 46.0 °F 43.1 °F 39.0 °F 76% 30.10 in 10.0 mi NW 5.8 mph - N/A   Clear
3:54 AM 43.0 °F 39.5 °F 39.0 °F 86% 30.13 in 10.0 mi NW 5.8 mph - N/A   Clear
4:54 AM 39.9 °F - 37.0 °F 89% 30.14 in 10.0 mi Calm Calm - N/A   Clear
5:54 AM 37.0 °F - 35.1 °F 93% 30.14 in 10.0 mi Calm Calm - N/A   Clear
6:54 AM 39.0 °F 34.0 °F 36.0 °F 89% 30.15 in 10.0 mi NNE 6.9 mph - N/A   Clear
8:54 AM 46.9 °F - 41.0 °F 80% 30.18 in 10.0 mi Calm Calm - N/A   Clear
10:54 AM 54.0 °F - 37.9 °F 55% 30.18 in 10.0 mi WNW 6.9 mph - N/A   Partly Cloudy
11:54 AM 57.9 °F - 37.9 °F 47% 30.17 in 10.0 mi West 13.8 mph 19.6 mph N/A   Scattered Clouds
12:54 PM 59.0 °F - 39.0 °F 48% 30.15 in 10.0 mi WSW 8.1 mph - N/A   Scattered Clouds
1:54 PM 60.1 °F - 39.0 °F 46% 30.14 in 10.0 mi West 15.0 mph - N/A   Scattered Clouds
2:54 PM 60.1 °F - 39.9 °F 47% 30.12 in 10.0 mi West 19.6 mph 26.5 mph N/A   Scattered Clouds
3:54 PM 59.0 °F - 37.9 °F 46% 30.11 in 10.0 mi West 21.9 mph 29.9 mph N/A   Clear
4:54 PM 57.0 °F - 36.0 °F 45% 30.09 in 10.0 mi West 23.0 mph 29.9 mph N/A   Clear
5:54 PM 55.0 °F - 37.9 °F 53% 30.10 in 10.0 mi West 20.7 mph 26.5 mph N/A   Clear
6:54 PM 52.0 °F - 37.0 °F 57% 30.10 in 10.0 mi West 19.6 mph 27.6 mph N/A   Clear
7:54 PM 48.9 °F - 37.0 °F 64% 30.10 in 10.0 mi West 19.6 mph - N/A   Clear
8:54 PM 46.0 °F 41.0 °F 37.9 °F 73% 30.12 in 10.0 mi West 10.4 mph 24.2 mph N/A   Clear
9:54 PM 46.9 °F - 34.0 °F 61% 30.13 in 10.0 mi West 9.2 mph - N/A   Clear
10:54 PM 46.0 °F 39.9 °F 33.1 °F 61% 30.13 in 10.0 mi WNW 13.8 mph - N/A   Clear
11:54 PM 43.0 °F 38.8 °F 33.1 °F 68% 30.13 in 10.0 mi NW 6.9 mph - N/A   Clear